Weather reports worldwide

Advertisment
Scampton, United Kingdom (3373): temperature & dewpoint: 04.04.2020 18:00:00 - 10.04.2020 18:00:00 (BST)Scampton, United Kingdom (3373): temperature -20cm & temperature -100cm: 04.04.2020 18:00:00 - 10.04.2020 18:00:00 (BST)Scampton, United Kingdom (3373): wind speed & gusts: 04.04.2020 18:00:00 - 10.04.2020 18:00:00 (BST)Scampton, United Kingdom (3373): wind direction: 04.04.2020 18:00:00 - 10.04.2020 18:00:00 (BST)Scampton, United Kingdom (3373): reduced air pressure: 04.04.2020 18:00:00 - 10.04.2020 18:00:00 (BST)Scampton, United Kingdom (3373): visibility: 04.04.2020 18:00:00 - 10.04.2020 18:00:00 (BST)Scampton, United Kingdom (3373): precipitation: 04.04.2020 18:00:00 - 10.04.2020 18:00:00 (BST)
Date & Time tt [°C] td [°C] tt -20cm [°C] tt -100cm [°C] ff [km/h] ff [kn] fx [km/h] fx [kn] dd ppp [hPa] vv [km] rr [mm]
10.04.2020 18:00:00 20,9 8,1 - - 16 9 - - SSE 1022,6 29 0,0
10.04.2020 17:00:00 21,0 8,4 - - 16 9 - - SSE 1023,0 24 0,0
10.04.2020 16:00:00 20,6 8,8 - - 16 9 - - SSE 1023,4 20 0,0
10.04.2020 15:00:00 18,8 9,2 - - 15 8 - - SSE 1024,1 17 0,0
10.04.2020 14:00:00 17,4 9,4 - - 15 8 - - SSE 1024,7 15 0,0
10.04.2020 13:00:00 16,4 8,8 - - 15 8 - - S 1025,3 16 0,0
10.04.2020 12:00:00 14,3 9,0 - - 13 7 - - SSE 1025,8 13 0,0
10.04.2020 11:00:00 11,2 8,1 - - 9 5 - - SSE 1026,4 12 0,0
10.04.2020 10:00:00 10,2 7,7 10,0 8,7 13 7 - - SSE 1026,6 12 0,0
10.04.2020 09:00:00 8,7 7,5 - - 11 6 - - SE 1026,6 11 0,0
10.04.2020 08:00:00 7,2 6,9 - - 11 6 - - SE 1026,6 5 0,0
10.04.2020 07:00:00 5,6 5,4 - - 5 3 - - ENE 1026,9 4,6 0,0
10.04.2020 06:00:00 5,6 5,1 - - 2 1 - - ENE 1026,8 2,7 0,0
10.04.2020 05:00:00 6,6 6,1 - - 8 4 - - ESE 1026,7 4,4 0,0
10.04.2020 04:00:00 7,1 6,4 - - 5 3 - - E 1027,1 9 0,0
10.04.2020 03:00:00 7,0 6,3 - - 8 4 - - E 1027,1 9 0,0
10.04.2020 02:00:00 6,9 6,2 - - 9 5 - - E 1027,2 8 0,0
10.04.2020 01:00:00 7,2 6,3 - - 11 6 - - E 1027,5 11 0,0
10.04.2020 00:00:00 7,3 6,4 - - 13 7 - - E 1027,8 8 0,0
09.04.2020 23:00:00 7,3 6,5 - - 13 7 - - E 1027,6 8 0,0
09.04.2020 22:00:00 7,6 6,6 - - 18 10 - - E 1027,6 9 0,0
09.04.2020 21:00:00 7,9 6,6 - - 18 10 - - E 1027,6 12 0,0
09.04.2020 20:00:00 8,5 6,8 - - 18 10 - - ENE 1027,3 13 0,0
09.04.2020 19:00:00 9,3 7,0 - - 21 11 - - E 1027,0 14 0,0
09.04.2020 18:00:00 10,3 7,2 - - 21 11 - - E 1026,9 15 0,0
09.04.2020 17:00:00 10,8 7,2 - - 22 12 - - E 1026,9 19 0,0
09.04.2020 16:00:00 11,2 7,0 - - 22 12 - - ENE 1027,2 19 0,0
09.04.2020 15:00:00 12,3 7,8 - - 21 11 - - ENE 1027,5 23 0,0
09.04.2020 14:00:00 12,2 7,7 - - 22 12 - - ENE 1027,6 23 0,0
09.04.2020 13:00:00 12,7 7,6 - - 21 11 - - ENE 1027,8 28 0,0
09.04.2020 12:00:00 12,1 8,1 - - 13 7 - - ENE 1027,9 - 0,0
09.04.2020 11:00:00 11,3 7,8 - - 18 10 - - NE 1027,7 - 0,0
09.04.2020 10:00:00 10,0 7,6 10,0 8,4 21 11 - - NE 1027,5 - 0,0
09.04.2020 09:00:00 9,0 7,4 - - 22 12 - - NE 1027,2 - 0,0
09.04.2020 08:00:00 8,6 6,8 - - 16 9 - - NE 1026,6 17 0,0
09.04.2020 07:00:00 7,5 5,6 - - 13 7 - - NNE 1025,9 14 0,0
09.04.2020 06:00:00 7,2 5,3 - - 13 7 - - NE 1025,4 17 0,0
09.04.2020 05:00:00 8,1 5,8 - - 11 6 - - NNE 1025,0 19 0,0
09.04.2020 04:00:00 9,2 6,2 - - 11 6 - - NNW 1024,6 25 0,0
09.04.2020 03:00:00 10,0 6,1 - - 13 7 - - N 1024,7 30 0,0
09.04.2020 02:00:00 10,9 6,4 - - 11 6 - - N 1024,7 19 0,0
09.04.2020 01:00:00 11,2 5,5 - - 8 4 - - NNE 1024,7 21 0,0
09.04.2020 00:00:00 10,9 5,8 - - 11 6 - - N 1024,9 21 0,0
08.04.2020 23:00:00 11,3 5,0 - - 5 3 - - ESE 1024,4 22 0,0
08.04.2020 22:00:00 13,4 5,4 - - 9 5 - - SE 1024,1 23 0,0
08.04.2020 21:00:00 14,5 5,8 - - 9 5 - - SE 1024,0 25 0,0
08.04.2020 20:00:00 16,5 6,9 - - 8 4 - - S 1023,3 26 0,0
08.04.2020 19:00:00 17,6 6,4 - - 11 6 - - WSW 1022,9 35 0,0
08.04.2020 18:00:00 19,9 5,5 - - 5 3 - - NNW 1022,7 40 0,0
08.04.2020 17:00:00 19,4 5,6 - - 9 5 - - W 1023,0 35 0,0
08.04.2020 16:00:00 20,2 5,3 - - 11 6 - - W 1023,5 35 0,0
08.04.2020 15:00:00 20,0 5,8 - - 8 4 - - W 1023,7 30 0,0
08.04.2020 14:00:00 19,2 4,1 - - 4 2 - - ESE 1024,2 35 0,0
08.04.2020 13:00:00 19,1 5,6 - - 4 2 - - SE 1024,6 30 0,0
08.04.2020 12:00:00 17,5 5,3 - - 8 4 - - ESE 1025,3 25 0,0
08.04.2020 11:00:00 16,0 5,7 - - 9 5 - - ENE 1025,6 24 0,0
08.04.2020 10:00:00 13,5 5,6 9,2 8,0 4 2 - - NNE 1025,8 21 0,0
08.04.2020 09:00:00 11,8 5,5 - - 4 2 - - WNW 1025,8 22 0,0
08.04.2020 08:00:00 9,1 5,6 - - 2 1 - - S 1025,8 16 0,0
08.04.2020 07:00:00 8,4 5,2 - - 2 1 - - SE 1025,8 16 0,0
08.04.2020 06:00:00 8,8 4,9 - - 5 3 - - SSE 1025,6 19 0,0
08.04.2020 05:00:00 8,9 5,0 - - 5 3 - - SSE 1025,9 20 0,0
08.04.2020 04:00:00 9,1 4,6 - - 5 3 - - SE 1026,1 24 0,0
08.04.2020 03:00:00 9,0 4,8 - - 5 3 - - SE 1026,6 25 0,0
08.04.2020 02:00:00 8,4 4,0 - - 11 6 - - SSE 1026,8 29 0,0
08.04.2020 01:00:00 9,7 3,5 - - 13 7 - - SE 1027,4 30 0,0
08.04.2020 00:00:00 10,2 2,6 - - 11 6 - - SE 1027,5 40 0,0
07.04.2020 23:00:00 10,9 3,2 - - 11 6 - - S 1027,2 35 0,0
07.04.2020 22:00:00 11,3 5,7 - - 11 6 - - SE 1027,3 27 0,0
07.04.2020 21:00:00 11,9 5,6 - - 11 6 - - SSE 1027,2 30 0,0
07.04.2020 20:00:00 14,0 5,4 - - 9 5 - - SE 1026,9 35 0,0
07.04.2020 19:00:00 16,1 5,4 - - 13 7 - - SE 1026,8 40 0,0
07.04.2020 18:00:00 17,6 3,9 - - 16 9 - - S 1027,0 45 0,0
07.04.2020 17:00:00 17,3 3,7 - - 21 11 - - S 1027,3 45 0,0
07.04.2020 16:00:00 16,9 3,4 - - 16 9 - - S 1028,0 45 0,0
07.04.2020 15:00:00 17,2 3,5 - - 18 10 - - S 1028,6 40 0,0
07.04.2020 14:00:00 16,9 4,3 - - 16 9 - - SSW 1029,0 40 0,0
07.04.2020 13:00:00 15,7 3,2 - - 21 11 - - S 1029,7 45 0,0
07.04.2020 12:00:00 15,0 3,9 - - 18 10 - - SSE 1030,3 35 0,0
07.04.2020 11:00:00 13,1 2,3 - - 16 9 - - SE 1030,8 35 0,0
07.04.2020 10:00:00 11,4 3,1 8,2 7,9 13 7 - - SSE 1030,7 35 0,0
07.04.2020 09:00:00 8,8 4,0 - - 5 3 - - SSE 1030,5 24 0,0
07.04.2020 08:00:00 6,9 3,0 - - 4 2 - - SE 1030,3 25 0,0
07.04.2020 07:00:00 3,9 1,2 - - 5 3 - - SSE 1029,9 24 0,0
07.04.2020 06:00:00 4,5 1,1 - - 5 3 - - SSW 1029,5 23 0,0
07.04.2020 05:00:00 3,2 0,0 - - 8 4 - - SW 1029,2 25 0,0
07.04.2020 04:00:00 4,4 1,3 - - 4 2 - - SW 1028,7 23 0,0
07.04.2020 03:00:00 5,6 1,8 - - 9 5 - - SSW 1028,3 25 0,0
07.04.2020 02:00:00 4,4 0,6 - - 2 1 - - S 1027,8 30 0,0
07.04.2020 01:00:00 5,6 1,5 - - 5 3 - - S 1027,0 35 0,0
07.04.2020 00:00:00 6,6 1,7 - - 4 2 - - NW 1026,0 35 0,0
06.04.2020 23:00:00 6,8 1,3 - - 8 4 - - NW 1025,3 35 0,0
06.04.2020 22:00:00 7,1 2,0 - - 13 7 - - NNW 1024,7 40 0,0
06.04.2020 21:00:00 8,7 2,4 - - 11 6 - - NNW 1023,7 40 0,0
06.04.2020 20:00:00 10,5 2,8 - - 8 4 - - WNW 1022,2 45 0,0
06.04.2020 19:00:00 13,4 4,3 - - 15 8 - - W 1020,8 40 0,0
06.04.2020 18:00:00 14,3 4,1 - - 22 12 - - WNW 1019,6 50 0,0
06.04.2020 17:00:00 14,3 5,2 - - 18 10 - - W 1018,7 45 0,0
06.04.2020 16:00:00 15,1 5,4 - - 22 12 48 26 WNW 1017,6 50 0,0
06.04.2020 15:00:00 16,1 3,4 - - 35 19 46 25 W 1016,9 45 0,0
06.04.2020 14:00:00 15,7 4,5 - - 29 16 - - WSW 1015,9 40 0,0
06.04.2020 13:00:00 15,6 4,9 - - 31 17 - - WSW 1015,0 40 0,0
06.04.2020 12:00:00 15,1 6,4 - - 26 14 48 26 WSW 1014,0 35 0,0
06.04.2020 11:00:00 13,7 6,8 - - 28 15 - - WSW 1013,4 35 0,0
06.04.2020 10:00:00 12,6 8,5 8,7 7,7 29 16 - - WSW 1012,2 35 0,0
06.04.2020 09:00:00 11,5 8,6 - - 18 10 - - SW 1011,3 40 0,0
06.04.2020 08:00:00 10,4 8,0 - - 15 8 - - W 1010,2 55 0,4
06.04.2020 07:00:00 10,9 8,4 - - 13 7 - - S 1008,5 14 0,2
06.04.2020 06:00:00 11,6 7,1 - - 15 8 - - S 1007,4 26 0,0
06.04.2020 05:00:00 12,0 5,7 - - 21 11 - - S 1007,1 40 0,0
06.04.2020 04:00:00 11,8 5,3 - - 16 9 - - SSE 1006,9 40 0,0
06.04.2020 03:00:00 13,0 4,9 - - 18 10 - - S 1007,1 45 0,0
06.04.2020 02:00:00 12,7 4,2 - - 22 12 - - SSE 1007,1 40 0,0
06.04.2020 01:00:00 13,0 4,1 - - 22 12 - - S 1007,6 35 0,0
06.04.2020 00:00:00 12,8 4,3 - - 24 13 - - S 1007,5 35 0,0
05.04.2020 23:00:00 12,8 4,2 - - 24 13 - - SSE 1008,0 35 0,0
05.04.2020 22:00:00 13,4 4,6 - - 18 10 - - SSE 1008,5 30 0,0
05.04.2020 21:00:00 14,1 5,0 - - 22 12 - - SSE 1008,5 27 0,0
05.04.2020 20:00:00 15,6 5,3 - - 21 11 - - SSE 1008,4 26 0,0
05.04.2020 19:00:00 16,8 5,6 - - 16 9 - - SSE 1008,4 25 0,0
05.04.2020 18:00:00 18,9 3,1 - - 24 13 - - S 1008,6 45 0,0
05.04.2020 17:00:00 19,3 3,5 - - 28 15 - - SSE 1009,2 35 0,0
05.04.2020 16:00:00 18,8 3,2 - - 31 17 48 26 S 1009,9 35 0,0
05.04.2020 15:00:00 19,3 3,4 - - 29 16 50 27 S 1010,5 35 0,0
05.04.2020 14:00:00 18,4 3,0 - - 29 16 54 29 SSE 1011,3 30 0,0
05.04.2020 13:00:00 17,8 2,7 - - 35 19 54 29 S 1012,1 30 0,0
05.04.2020 12:00:00 16,4 3,3 - - 35 19 52 28 SSE 1012,9 30 0,0
05.04.2020 11:00:00 14,5 4,2 - - 24 13 - - SSE 1013,9 29 0,0
05.04.2020 10:00:00 12,0 4,1 7,7 7,5 28 15 - - SSE 1014,8 23 0,0
05.04.2020 09:00:00 8,6 3,6 - - 22 12 - - SE 1015,6 16 0,0
05.04.2020 08:00:00 5,9 3,1 - - 16 9 - - SE 1015,9 12 0,0
05.04.2020 07:00:00 4,9 2,7 - - 18 10 - - SE 1016,0 10 0,0
05.04.2020 06:00:00 4,0 2,2 - - 13 7 - - SE 1016,4 9 0,0
05.04.2020 05:00:00 4,4 2,3 - - 13 7 - - SSE 1016,8 10 0,0
05.04.2020 04:00:00 4,3 2,1 - - 13 7 - - SE 1017,2 10 0,0
05.04.2020 03:00:00 5,0 2,6 - - 13 7 - - SE 1017,6 10 0,0
05.04.2020 02:00:00 4,7 2,5 - - 9 5 - - SSE 1018,3 8 0,0
05.04.2020 01:00:00 6,1 2,9 - - 13 7 - - SSE 1018,9 13 0,0
05.04.2020 00:00:00 7,0 2,6 - - 13 7 - - SSE 1019,0 23 0,0
04.04.2020 23:00:00 9,4 2,8 - - 21 11 - - S 1018,7 30 0,0
04.04.2020 22:00:00 10,4 2,9 - - 21 11 - - SSE 1018,4 35 0,0
04.04.2020 21:00:00 10,5 3,3 - - 11 6 - - SSE 1018,3 35 0,0
04.04.2020 20:00:00 12,3 3,5 - - 11 6 - - S 1017,8 45 0,0
04.04.2020 19:00:00 13,6 4,0 - - 13 7 - - S 1017,6 45 0,0
04.04.2020 18:00:00 13,6 4,5 - - 16 9 - - SSW 1017,7 30 0,0

tt = temperature
td = dewpoint
tt -20cm = temperature -20cm
tt -100cm = temperature -100cm
ff = wind speed
fx = gusts
dd = wind direction
ppp = reduced air pressure
vv = visibility
rr = precipitation

Next stations